Temperature
18 18 18 18 18 18 18 18 18 18 18 18 18 18 18 18 18 18 18 18 18 18 18 18 18 18 17 17 17 17 17 17 17 17 17 17 17 16 16 16 16 16 16
18 18 18 18 18 18 18 18 18 18 18 18 18 18 18 18 18 18 18 18 18 18 18 18 18 18 17 17 17 17 17 17 17 17 17 17 17 16 16 16 16 16 16
18 18 18 18 18 18 18 18 18 18 18 18 18 18 18 18 18 18 18 18 18 18 18 18 18 18 18 17 17 17 17 17 17 17 17 17 17 16 16 16 16 16 16
18 18 18 18 18 18 18 18 18 18 18 18 18 18 18 18 18 18 18 18 18 18 18 18 18 18 18 17 17 17 17 17 17 17 17 17 17 16 16 16 16 16 16
18 18 18 18 18 18 18 18 18 18 18 18 18 18 18 18 18 18 18 18 18 18 18 18 18 18 18 17 17 17 17 17 17 17 17 17 17 16 16 16 16 16 16
18 18 18 18 18 18 18 18 18 18 18 18 18 18 18 18 18 18 18 18 18 18 18 18 18 18 17 17 17 17 17 17 17 17 17 17 17 17 17 16 16 16 16
18 18 18 18 18 18 18 18 18 18 18 18 18 18 18 18 18 18 18 18 18 18 18 18 18 18 17 17 17 17 17 17 17 17 17 17 17 17 17 16 16 16 16
18 18 18 18 18 18 18 18 18 18 18 18 18 18 18 18 18 18 18 18 18 18 18 18 17 17 17 17 17 17 17 17 17 17 17 16 16 16 16 16 16 16 16
18 18 18 18 18 18 18 18 18 18 18 18 18 18 17 17 18 18 18 18 18 18 18 17 17 17 17 17 17 17 17 17 17 17 17 16 16 16 16 16 16 16 16
18 18 18 18 18 18 18 18 18 18 18 18 18 17 17 17 17 17 17 17 17 17 17 17 17 17 17 17 17 17 17 17 17 17 16 16 16 16 16 16 16 16 16
18 18 18 18 18 18 18 18 18 18 18 18 18 17 17 17 17 17 17 17 17 17 17 17 17 17 17 17 17 17 17 17 17 17 16 16 16 16 16 16 16 16 16
18 18 18 18 18 18 18 17 17 17 17 17 17 17 17 17 17 17 17 17 17 17 17 17 17 17 17 17 17 16 16 16 16 16 16 16 16 16 16 16 16 16 16
18 18 18 18 18 18 18 17 17 17 17 17 17 17 17 17 17 17 17 17 17 17 17 17 17 17 17 17 16 16 16 16 16 16 16 16 16 16 16 16 16 15 15
19 18 18 18 18 18 17 17 17 17 17 17 17 17 17 17 17 17 16 16 16 16 17 17 17 17 16 16 16 16 16 16 16 16 16 16 16 16 16 16 15 15 15
18 18 18 18 18 17 17 17 17 17 17 17 17 17 17 17 16 16 16 16 16 16 16 16 16 16 16 16 16 16 16 16 16 16 16 16 16 15 15 15 15 15 15
18 18 18 18 18 17 17 17 17 17 17 17 17 17 17 17 16 16 16 16 16 16 16 16 16 16 16 16 16 16 16 16 16 15 15 15 15 15 15 15 15 15 15
18 18 18 18 17 17 17 17 17 17 16 16 16 16 16 16 16 16 16 16 16 16 16 16 15 15 15 15 15 15 15 15 15 15 15 15 15 15 15 15 15 15 15
18 18 18 18 17 17 17 17 17 17 16 16 16 16 16 16 16 16 16 16 16 15 15 15 15 15 15 15 15 15 15 15 15 15 15 15 15 15 14 14 14 14 14
18 18 17 17 17 17 17 17 17 16 16 16 16 16 16 16 16 16 16 15 15 15 15 15 15 15 14 14 14 14 14 14 14 14 14 14 14 14 14 14 14 14 14
18 17 17 17 17 17 17 17 17 16 16 16 16 16 16 16 16 16 15 15 15 15 15 15 14 14 14 14 14 14 14 14 14 14 14 14 14 14 14 14 14 14 14
17 17 17 17 17 17 17 17 16 16 16 16 16 16 16 15 15 15 15 15 15 15 14 14 14 14 13 13 13 13 13 13 13 13 14 14 14 13 13 13 13 13 13
17 17 17 17 17 16 16 16 16 16 16 16 16 15 15 15 15 15 15 15 14 14 14 14 14 13 13 13 13 13 13 13 13 13 13 13 13 13 13 13 13 13 13
17 17 17 16 16 16 16 16 16 16 16 15 15 15 15 15 15 15 14 14 14 14 14 13 13 13 13 13 13 13 12 12 12 12 12 12 12 12 13 12 12 12 13
17 17 16 16 16 16 16 16 16 15 15 15 15 15 15 15 14 14 14 14 14 14 13 13 13 13 13 12 12 12 12 12 12 12 12 12 12 12 12 12 12 12 12
17 16 16 16 16 16 16 15 15 15 15 15 15 15 14 14 14 14 14 14 13 13 13 13 13 13 12 12 12 12 12 12 12 12 12 11 12 12 12 12 11 11 12
16 16 16 16 16 15 15 15 15 15 15 14 14 14 14 14 14 13 13 13 13 13 13 13 12 12 12 12 12 12 12 12 11 11 11 11 11 11 11 11 11 11 11
Wind_Speed
1 1 1 1 2 2 1 1 1 2 2 2 2 2 2 3 4 4 4 6 7 8 8 8 9 9 10 10 11 11 11 11 11 10 9 9 9 9 9 9 9 9 9
2 1 1 1 2 2 2 2 2 2 2 1 2 2 3 3 4 5 5 6 8 8 9 9 9 10 10 10 11 11 11 11 11 11 10 10 10 9 9 9 9 9 9
3 2 1 2 2 2 2 1 1 1 2 1 2 2 2 3 4 5 5 5 6 8 8 9 9 10 10 11 11 12 12 12 11 11 11 11 11 10 10 10 10 10 10
4 2 2 2 2 1 1 1 1 0 1 1 1 2 2 2 3 4 4 5 5 5 6 8 8 9 10 11 11 12 12 12 12 12 11 11 11 11 11 11 11 11 11
4 3 2 2 1 1 0 1 1 1 1 1 2 2 1 2 2 3 3 3 4 5 5 6 7 7 8 9 10 11 11 11 11 12 12 12 12 11 11 12 12 11 11
3 3 2 1 1 1 0 0 0 0 1 1 1 1 1 1 1 1 2 2 3 4 4 5 4 5 6 7 7 7 8 9 10 10 11 10 10 10 11 11 12 12 12
3 3 2 1 1 1 1 1 1 1 0 1 1 1 2 1 0 0 1 1 1 2 3 4 4 4 4 5 6 6 7 8 8 9 10 10 10 9 10 10 11 11 12
3 3 3 2 2 1 1 1 2 1 0 1 1 1 1 2 2 1 0 1 1 1 1 2 3 3 4 4 4 5 6 7 8 8 8 8 8 8 10 10 10 10 11
3 3 3 3 2 2 2 2 2 2 1 1 1 2 2 1 1 2 1 1 1 0 1 1 2 2 2 3 4 5 6 7 7 8 8 8 9 9 9 10 9 9 10
2 3 3 3 3 2 2 3 2 2 3 2 1 1 1 2 2 1 2 1 1 1 1 1 1 2 2 3 4 4 5 6 6 7 8 8 8 9 9 9 9 9 9
2 2 3 3 2 2 3 3 2 2 2 3 2 1 1 1 1 2 2 2 2 1 1 1 1 2 3 3 4 4 5 6 6 6 7 8 8 8 8 9 9 9 9
1 2 3 2 2 2 3 3 2 2 2 2 2 2 2 2 2 2 2 2 2 1 1 1 1 2 3 3 4 5 5 5 5 5 6 7 7 7 7 7 8 8 8
2 2 2 2 2 2 2 2 2 2 2 2 2 2 2 2 2 2 2 1 1 1 1 1 1 2 2 3 4 4 4 5 4 5 6 7 6 6 5 5 5 6 5
3 3 3 3 2 3 2 2 2 2 2 2 2 2 2 2 3 3 3 2 1 1 1 2 1 1 2 2 3 3 3 4 5 5 6 6 6 6 6 5 4 4 5
3 4 3 3 2 2 2 2 2 2 2 2 2 2 2 2 2 2 3 3 3 2 2 2 1 1 1 2 3 2 2 4 4 4 4 5 5 5 4 4 4 4 4
3 4 3 3 3 3 3 2 2 2 2 2 2 2 2 2 2 2 3 2 3 3 2 2 2 1 2 2 2 2 2 3 3 3 3 4 4 4 4 4 4 4 4
5 4 4 4 4 3 3 3 3 2 2 2 2 2 2 2 2 2 2 2 2 2 3 2 1 1 1 2 3 2 2 2 2 2 2 3 3 4 4 5 5 5 5
4 4 4 4 4 4 4 4 4 3 3 3 3 2 3 2 2 2 2 2 2 3 3 2 1 1 1 1 2 2 2 2 2 2 2 2 2 3 3 4 4 5 4
4 4 4 4 4 4 4 4 4 4 4 4 4 4 4 3 2 2 2 2 2 2 2 3 1 1 1 1 1 2 3 2 3 2 2 1 2 2 3 3 3 3 3
4 4 4 4 4 4 4 4 4 4 4 4 4 4 4 4 4 3 2 2 2 2 2 2 1 1 1 1 1 1 2 2 3 3 3 2 1 1 2 3 3 3 3
4 3 3 3 3 3 4 4 4 4 3 2 2 2 3 3 3 3 2 2 3 2 2 2 2 1 1 1 1 1 1 2 2 2 3 2 2 1 2 2 3 3 3
4 3 3 3 3 4 4 5 4 4 3 3 2 2 1 1 2 2 3 3 4 4 4 3 2 2 2 2 1 1 0 1 2 2 2 2 2 2 2 2 2 2 3
4 4 4 3 4 5 5 5 5 4 3 3 3 2 2 1 2 2 2 2 2 3 4 4 4 4 3 3 2 2 1 1 2 2 1 2 2 2 2 3 2 2 2
4 4 4 4 4 5 4 5 5 4 3 3 3 3 3 2 2 3 2 2 1 1 2 3 4 4 3 3 3 3 2 1 2 2 1 1 2 2 2 3 2 1 1
4 4 4 4 4 4 4 5 5 3 3 3 3 3 3 3 3 4 4 3 1 1 0 2 2 3 3 3 3 2 2 1 1 1 1 1 1 1 1 1 2 2 2
4 4 3 4 4 4 5 6 6 3 3 2 2 2 3 4 4 5 4 4 3 2 1 1 1 0 1 2 3 3 3 2 1 2 1 1 1 0 1 1 1 2 2
Wind_Direction
219 241 255 265 271 261 235 238 245 248 250 253 240 227 227 220 225 225 231 237 237 231 225 223 219 218 216 214 212 211 213 214 213 211 212 214 217 218 218 217 216 214 213
214 221 245 257 262 244 227 222 237 249 260 256 258 243 236 230 229 226 231 236 235 232 230 228 228 227 226 222 218 216 217 220 217 214 215 217 219 221 222 221 219 217 215
211 214 227 251 257 242 215 214 249 250 255 243 252 254 241 234 233 228 230 233 235 235 236 234 232 235 233 230 226 221 220 220 218 219 219 223 222 223 223 223 220 220 219
212 198 217 245 248 224 176 190 203 215 265 262 262 266 254 243 238 234 232 232 232 235 237 239 239 239 240 235 231 227 224 222 219 218 219 224 227 226 226 224 224 222 222
212 198 214 234 214 169 203 223 186 180 221 268 263 260 251 247 248 244 242 236 231 232 234 239 240 242 243 243 238 234 229 228 226 224 223 224 225 227 228 227 225 224 225
202 187 195 222 172 156 197 177 160 142 202 236 283 329 297 258 245 255 250 242 236 234 235 241 242 248 252 252 248 236 230 227 226 226 225 223 223 225 226 226 226 226 227
185 169 178 186 176 189 204 170 147 122 57 97 78 7 350 348 338 283 248 249 258 243 228 230 236 238 246 249 246 242 239 234 228 227 225 223 224 226 227 228 229 229 229
188 183 178 189 183 178 177 158 150 140 170 128 126 102 360 345 346 351 332 254 283 269 223 232 231 231 232 236 240 241 243 239 232 229 222 218 222 226 230 231 233 234 230
195 190 183 183 188 181 195 204 182 172 185 197 144 145 153 227 305 332 327 322 305 297 274 243 237 244 234 233 245 244 241 242 238 231 223 222 223 227 231 232 232 233 231
201 196 188 186 194 193 200 211 194 189 176 192 195 200 176 165 175 300 320 326 313 285 275 280 270 255 244 237 247 253 249 244 244 242 234 230 228 227 226 227 230 231 231
210 204 194 193 200 207 214 214 199 188 186 183 179 172 162 145 174 183 256 301 323 306 279 260 255 254 245 242 248 260 259 254 248 248 243 237 231 231 230 229 232 235 233
221 218 191 186 199 204 213 216 205 195 200 191 185 174 173 177 190 187 218 245 270 291 291 274 261 257 246 245 253 265 261 264 259 251 247 242 235 235 240 236 230 232 232
218 227 200 185 201 206 205 199 194 205 197 192 201 202 196 202 181 176 184 219 255 286 297 283 271 276 271 267 271 277 276 271 267 258 249 247 239 233 230 227 224 228 232
210 212 200 191 194 195 201 192 201 218 204 205 212 203 202 210 191 186 185 181 217 286 291 277 294 284 293 288 290 287 288 280 273 265 253 244 237 231 226 220 214 219 225
202 200 193 189 190 189 191 188 200 216 202 205 213 211 215 224 208 207 193 183 181 216 255 264 279 311 308 295 313 318 300 298 285 271 259 247 238 234 230 228 223 218 218
201 197 196 190 193 194 193 193 204 220 198 219 217 203 216 226 210 200 197 195 191 193 227 251 248 294 336 344 347 340 321 321 303 286 277 254 238 234 230 228 227 221 221
198 199 197 198 200 201 201 198 214 211 209 226 228 214 227 208 190 197 189 189 191 184 214 260 252 295 323 343 352 353 348 338 322 293 282 264 243 233 233 235 233 229 229
200 202 200 198 202 207 206 205 216 217 214 221 229 220 230 218 194 200 197 198 194 189 195 224 238 271 281 323 352 351 356 5 339 323 295 265 247 233 242 246 248 246 240
206 203 201 204 209 212 213 214 213 216 220 223 223 215 220 201 206 208 203 206 203 192 186 187 214 222 257 334 10 359 3 3 355 348 342 274 248 243 245 249 255 255 256
211 212 212 211 214 215 214 215 212 219 224 226 224 218 213 207 207 206 205 200 184 167 163 169 195 215 255 307 357 347 349 354 347 360 5 354 320 260 251 249 253 255 257
212 211 204 211 216 214 220 213 208 211 207 213 222 223 217 201 193 190 189 184 169 169 171 176 193 190 228 253 278 282 318 336 333 332 339 347 350 340 323 290 265 260 259
192 191 197 208 221 231 228 207 197 199 198 199 210 221 209 178 166 151 151 165 171 178 184 184 199 214 233 229 226 219 210 327 313 319 328 324 343 328 333 325 296 270 262
184 190 199 205 228 240 223 206 194 189 191 197 196 194 198 180 158 155 133 130 151 170 177 183 199 221 223 217 204 223 231 241 255 277 300 298 306 314 322 326 314 292 278
190 202 212 218 230 244 223 202 188 186 192 198 197 195 189 190 186 165 155 139 145 196 197 196 209 225 223 215 206 211 217 246 272 271 237 260 290 300 326 335 342 350 350
205 213 212 216 226 245 223 197 180 183 193 203 200 195 192 198 194 167 162 163 162 294 150 155 181 206 212 203 175 159 166 184 265 276 240 236 258 309 328 328 353 21 34
213 217 224 225 224 233 223 199 179 177 188 206 215 216 203 196 194 181 178 177 195 233 214 128 118 123 174 168 163 184 189 188 220 259 246 222 229 245 317 323 351 2 14
Height
1546 1546 1547 1547 1547 1548 1548 1548 1549 1549 1550 1551 1551 1552 1552 1553 1553 1553 1554 1554 1554 1555 1555 1555 1556 1556 1557 1557 1558 1559 1559 1560 1561 1562 1562 1563 1564 1564 1565 1566 1567 1568 1569
1545 1546 1546 1547 1547 1547 1548 1548 1548 1549 1549 1550 1550 1551 1551 1551 1552 1552 1552 1553 1553 1553 1554 1554 1554 1555 1555 1556 1556 1557 1558 1558 1559 1560 1560 1561 1562 1562 1563 1564 1565 1566 1567
1545 1546 1546 1546 1547 1547 1547 1547 1547 1548 1548 1549 1549 1549 1550 1550 1550 1551 1551 1551 1551 1552 1552 1552 1553 1553 1553 1554 1554 1555 1556 1556 1557 1557 1558 1559 1559 1560 1561 1561 1562 1563 1565
1545 1545 1545 1546 1546 1546 1546 1546 1546 1547 1547 1547 1547 1548 1548 1548 1549 1549 1549 1550 1550 1550 1551 1551 1551 1551 1552 1552 1552 1553 1553 1554 1555 1555 1556 1556 1556 1557 1558 1559 1560 1561 1562
1544 1544 1545 1545 1545 1545 1545 1545 1545 1546 1546 1546 1546 1546 1546 1547 1547 1547 1548 1548 1548 1549 1549 1549 1550 1550 1550 1550 1550 1550 1551 1552 1552 1553 1553 1553 1554 1555 1555 1556 1557 1558 1559
1543 1543 1544 1544 1544 1544 1544 1544 1544 1544 1544 1545 1545 1545 1545 1545 1545 1546 1546 1546 1547 1547 1547 1547 1547 1547 1547 1548 1548 1548 1549 1549 1549 1550 1550 1551 1552 1552 1553 1553 1555 1556 1556
1543 1543 1543 1543 1543 1543 1544 1543 1543 1543 1543 1543 1543 1543 1544 1544 1544 1544 1545 1545 1545 1545 1545 1545 1545 1545 1545 1545 1546 1546 1546 1547 1547 1547 1548 1548 1549 1550 1550 1551 1552 1553 1553
1542 1542 1542 1542 1542 1542 1542 1542 1542 1542 1542 1542 1542 1542 1542 1544 1543 1543 1543 1544 1544 1544 1544 1544 1544 1543 1543 1544 1544 1544 1544 1544 1545 1545 1545 1546 1547 1547 1547 1548 1549 1550 1550
1541 1541 1541 1542 1542 1542 1542 1542 1542 1541 1541 1541 1541 1542 1541 1541 1542 1542 1542 1542 1542 1542 1542 1542 1542 1542 1542 1542 1542 1542 1542 1542 1543 1543 1543 1544 1544 1544 1545 1545 1546 1546 1547
1540 1540 1540 1541 1541 1541 1540 1541 1540 1540 1540 1540 1540 1540 1540 1540 1540 1540 1541 1541 1541 1541 1541 1541 1540 1540 1540 1540 1540 1540 1540 1540 1541 1541 1541 1541 1542 1542 1542 1542 1543 1543 1544
1538 1539 1539 1539 1539 1539 1539 1539 1539 1539 1539 1538 1538 1538 1538 1538 1538 1539 1538 1539 1539 1539 1539 1539 1539 1539 1539 1538 1539 1539 1538 1538 1538 1539 1539 1539 1539 1539 1540 1540 1540 1540 1541
1536 1537 1537 1538 1538 1538 1538 1538 1538 1537 1537 1537 1537 1537 1537 1537 1537 1537 1537 1536 1537 1537 1537 1537 1537 1537 1537 1537 1537 1536 1536 1536 1536 1536 1536 1537 1537 1537 1537 1537 1537 1537 1538
1533 1534 1535 1535 1536 1536 1536 1536 1536 1536 1536 1535 1535 1535 1535 1535 1535 1535 1535 1535 1535 1535 1535 1535 1535 1535 1535 1535 1535 1534 1534 1534 1534 1534 1534 1534 1534 1534 1534 1534 1534 1535 1535
1531 1532 1533 1533 1533 1534 1534 1534 1534 1534 1534 1533 1533 1533 1533 1533 1533 1533 1533 1533 1533 1533 1533 1533 1533 1533 1533 1533 1532 1532 1532 1532 1532 1532 1532 1532 1532 1532 1532 1532 1532 1532 1532
1528 1529 1530 1530 1531 1531 1531 1532 1531 1531 1531 1531 1531 1531 1531 1531 1531 1531 1531 1531 1532 1531 1530 1530 1531 1531 1531 1530 1530 1530 1529 1529 1529 1529 1529 1529 1529 1529 1529 1529 1529 1529 1529
1526 1526 1527 1527 1528 1529 1529 1529 1529 1529 1529 1529 1529 1529 1529 1528 1528 1528 1528 1528 1529 1529 1528 1528 1528 1528 1528 1528 1527 1527 1527 1526 1526 1526 1526 1526 1526 1526 1526 1526 1526 1526 1526
1522 1523 1524 1524 1525 1526 1526 1526 1526 1526 1526 1526 1526 1526 1526 1526 1526 1526 1525 1525 1525 1526 1525 1525 1525 1525 1525 1525 1525 1524 1524 1523 1523 1523 1523 1523 1523 1522 1523 1523 1523 1523 1524
1519 1520 1521 1522 1522 1522 1523 1523 1523 1523 1523 1523 1523 1523 1523 1523 1523 1523 1523 1523 1523 1523 1523 1522 1522 1522 1522 1522 1521 1521 1521 1520 1520 1520 1520 1520 1519 1519 1519 1520 1520 1520 1520
1516 1517 1518 1518 1518 1518 1519 1519 1520 1520 1520 1520 1520 1520 1520 1521 1520 1520 1520 1520 1520 1520 1520 1519 1519 1519 1519 1519 1518 1518 1518 1517 1517 1517 1517 1516 1516 1516 1516 1516 1516 1516 1517
1513 1514 1515 1515 1515 1515 1515 1515 1516 1516 1517 1517 1517 1517 1517 1517 1517 1517 1517 1517 1517 1516 1516 1516 1516 1516 1516 1516 1516 1515 1514 1514 1514 1514 1514 1513 1513 1513 1513 1513 1513 1513 1513
1510 1510 1511 1512 1512 1512 1512 1512 1512 1513 1513 1513 1514 1514 1514 1514 1514 1514 1514 1514 1514 1513 1513 1513 1513 1513 1513 1513 1513 1512 1512 1511 1511 1511 1510 1510 1510 1510 1510 1509 1510 1510 1510
1505 1507 1507 1508 1508 1509 1509 1509 1509 1510 1510 1510 1510 1511 1511 1511 1511 1511 1511 1511 1511 1511 1511 1511 1510 1510 1510 1510 1510 1510 1509 1509 1508 1508 1507 1507 1507 1506 1506 1506 1506 1507 1507
1501 1502 1503 1504 1505 1506 1506 1506 1506 1507 1507 1507 1508 1508 1508 1508 1508 1508 1508 1508 1508 1507 1508 1508 1508 1507 1507 1507 1507 1507 1506 1506 1505 1505 1505 1504 1504 1503 1504 1503 1503 1503 1504
1498 1499 1500 1500 1501 1502 1503 1503 1503 1503 1504 1504 1504 1505 1505 1505 1505 1505 1505 1505 1505 1504 1505 1505 1505 1505 1505 1504 1504 1504 1504 1503 1503 1503 1502 1502 1501 1501 1501 1501 1501 1501 1501
1494 1495 1496 1497 1498 1499 1500 1500 1500 1500 1500 1501 1501 1501 1501 1501 1502 1502 1502 1501 1501 1501 1501 1502 1502 1502 1502 1501 1501 1501 1501 1500 1500 1500 1500 1499 1499 1498 1498 1499 1499 1499 1499
1491 1492 1493 1493 1494 1495 1496 1496 1496 1497 1497 1497 1497 1497 1497 1498 1498 1498 1498 1498 1498 1498 1498 1498 1499 1499 1499 1499 1499 1499 1498 1498 1497 1497 1497 1497 1497 1496 1496 1496 1496 1497 1496